Location: ČR
(50.0000°N, 15.0000°E)
Time: 20:28:25
(UTC+00:00)

Vanguard 3 - Pass Details

Date: 22 October 2021
Orbit: 508 x 3260 km, 33.4° (Epoch: 04 December)

Event Time Altitude Azimuth Distance (km) Brightness Sun altitude
Rises 22:35:29 0° 263° (W) 5,491 11.4 -51.3°
Enters shadow 22:36:43 - 259° (W) 5,340 11.3 -51.4°
Reaches altitude 10° 22:40:50 10° 245° (WSW) 4,993 - -51.4°
Maximum altitude 22:48:41 16° 213° (SSW) 5,046 - -51.4°
Drops below altitude 10° 22:58:02 10° 182° (S) 6,032 - -51.3°
Sets 23:05:55 0° 166° (SSE) 7,211 - -51.1°
